This is the latest recevied weather packets stored in our database for station/object KJ7HSW. If no packets are shown the sender has not sent any weather packets the latest 1 day(s).
| Time | Temp. | Humidity | Pressure | Rain* | Wind** | Luminosity | Snow |
|---|---|---|---|---|---|---|---|
| 1777997970 | 16.67° C | 68% | 1014.9 hPa | 0 mm | 1.79 m/s, 182° | 499 W/m² | - |
| 1777997667 | 16.67° C | 70% | 1014.9 hPa | 0 mm | 1.79 m/s, 171° | 488 W/m² | - |
| 1777997364 | 16.67° C | 70% | 1014.8 hPa | 0 mm | 2.24 m/s, 203° | 484 W/m² | - |
| 1777997062 | 16.11° C | 70% | 1014.8 hPa | 0 mm | 1.79 m/s, 201° | 461 W/m² | - |
| 1777996758 | 16.11° C | 71% | 1014.8 hPa | 0 mm | 1.34 m/s, 176° | 441 W/m² | - |
| 1777996455 | 15.56° C | 73% | 1015 hPa | 0 mm | 1.34 m/s, 186° | 426 W/m² | - |
| 1777996152 | 15° C | 75% | 1014.7 hPa | 0 mm | 1.34 m/s, 166° | 406 W/m² | - |
| 1777995848 | 15° C | 75% | 1014.8 hPa | 0 mm | 2.68 m/s, 162° | 368 W/m² | - |
| 1777995544 | 15° C | 75% | 1014.9 hPa | 0 mm | 1.79 m/s, 177° | 303 W/m² | - |
| 1777995242 | 14.44° C | 75% | 1014.9 hPa | 0 mm | 3.58 m/s, 152° | 266 W/m² | - |
| 1777994939 | 14.44° C | 78% | 1014.7 hPa | 0 mm | 1.34 m/s, 202° | 249 W/m² | - |
| 1777994635 | 13.33° C | 81% | 1014.9 hPa | 0 mm | 1.79 m/s, 212° | 191 W/m² | - |
| 1777994329 | 13.33° C | 82% | 1014.8 hPa | 0 mm | 0.89 m/s, 164° | 58 W/m² | - |
| 1777994027 | 12.78° C | 82% | 1014.9 hPa | 0 mm | 1.79 m/s, 190° | 56 W/m² | - |
| 1777993723 | 12.78° C | 83% | 1014.9 hPa | 0 mm | 1.34 m/s, 186° | 54 W/m² | - |
| 1777993420 | 12.78° C | 83% | 1014.7 hPa | 0 mm | 1.34 m/s, 174° | 52 W/m² | - |
| 1777993115 | 12.22° C | 83% | 1014.6 hPa | 0 mm | 1.34 m/s, 180° | 51 W/m² | - |
| 1777992813 | 12.22° C | 85% | 1014.7 hPa | 0 mm | 0.89 m/s, 176° | 49 W/m² | - |
| 1777992510 | 11.67° C | 85% | 1014.5 hPa | 0 mm | 1.34 m/s, 171° | 48 W/m² | - |
| 1777992209 | 11.67° C | 86% | 1014.6 hPa | 0 mm | 1.34 m/s, 193° | 46 W/m² | - |
| 1777991906 | 11.67° C | 87% | 1014.5 hPa | 0 mm | 1.34 m/s, 180° | 45 W/m² | - |
| 1777991603 | 11.11° C | 87% | 1014.6 hPa | 0 mm | 1.79 m/s, 165° | 43 W/m² | - |
| 1777991300 | 11.11° C | 87% | 1014.3 hPa | 0 mm | 1.79 m/s, 165° | 42 W/m² | - |
| 1777990998 | 11.11° C | 87% | 1014.5 hPa | 0 mm | 1.34 m/s, 159° | 41 W/m² | - |
| 1777990695 | 10.56° C | 88% | 1014.2 hPa | 0 mm | 1.34 m/s, 180° | 39 W/m² | - |
* Rain latest hour (hover to see other rain measurements)
** Current wind speed in m/s (hover to see current wind gust speed)